Flag for Canada Weather past 2 weeks in Saguenay, Quebec, Canada

Now
61 °F

Cool.


Feels Like: 61 °F
Forecast: 54 / 83 °F
Wind: 6 mph from South

Location: Jonquiere Airport

Current Time: Jul 6, 2015 at 1:01:19 AM

Latest Report: Jul 6, 2015 at 12:00 AM


Visibility: N/A

Pressure: 30.09 "Hg

Humidity: 89%

Dew point: 57 °F

Location of SaguenayLocation

Historic Weather in Saguenay — Graph

°F

Saguenay temperature yesterday

Maximum temperature yesterday: 75 °F (at 4:00 PM)
Minimum temperature yesterday: 59 °F (at 5:00 AM)
Average temperature yesterday: 66 °F

Past Weeks' High & Low Weather Summary

 TemperatureHumidityPressure
High79 °F (Jun 27, 6:00 PM)100% (Jul 1, 7:00 PM)30.19 "Hg (Jul 1, 7:00 PM)
Low47 °F (Jun 27, 5:00 AM)30% (Jun 27, 6:00 PM)29.46 "Hg (Jul 2, 3:00 AM)
Average61 °F72%29.88 "Hg
* Reported Jun 20 11:00 PM — Jul 5 11:00 PM, Saguenay, Weather by CustomWeather, © 2015

Note: Actual official high and low records may vary slightly from our data, if they occured in-between our weather recording intervals... More about our weather records

Advertising

Saguenay weather history for previous 24 hours

 ConditionsComfort  
Time TempWeatherWind HumidityBarometerVisibility
11:00 PM
Sun, Jul 5
65 °FMild.3 mph75%30.09 "HgN/A
10:00 PM67 °FMild.5 mph69%30.09 "HgN/A
9:00 PM66 °FMild.6 mph73%30.07 "HgN/A
8:00 PM71 °FMild.7 mph61%30.05 "HgN/A
7:00 PM73 °FMild.8 mph57%30.04 "HgN/A
6:00 PM75 °FMild.10 mph53%30.04 "HgN/A
5:00 PM75 °FMild.10 mph54%30.03 "HgN/A
4:00 PM75 °FMild.9 mph54%30.03 "HgN/A
3:00 PM75 °FMild.9 mph58%30.02 "HgN/A
2:00 PM74 °FMild.9 mph65%30.04 "HgN/A
1:00 PM70 °FMild.5 mph69%30.03 "HgN/A
12:00 PM67 °FMild.7 mph68%30.03 "HgN/A
11:00 AM67 °FMild.7 mph79%30.02 "HgN/A
10:00 AM66 °FMild.7 mph81%30.01 "HgN/A
9:00 AM63 °FMild.3 mph87%30.01 "HgN/A
8:00 AM61 °FCool.2 mph93%29.99 "HgN/A
7:00 AM59 °FCool.1 mph90%29.98 "HgN/A
6:00 AM59 °FCool.1 mph96%29.97 "HgN/A
5:00 AM59 °FCool.1 mph94%29.94 "HgN/A
4:00 AM59 °FCool.5 mph94%29.94 "HgN/A
3:00 AM60 °FCool.2 mph92%29.93 "HgN/A
2:00 AM61 °FCool.5 mph84%29.93 "HgN/A
1:00 AM61 °FCool.3 mph88%29.93 "HgN/A
Weather by CustomWeather, © 2015

See weather overviewHow to use our weather pages